Hourly Data Report for May 13, 2021

MIRAMICHI RCS
NEW BRUNSWICK
Current Station Operator: ECCC - MSC

47°00'34.000" N
65°27'54.000" W
33.00 m
8100989
71744
ACQ

Download Data

Hourly Data (May 2021)
Hourly Data Report for May 13, 2021
TIME
LST
Temp Definition
°C
Dew Point Definition
°C
Rel Hum Definition
%
Precip. Amount Definition
mm

Wind Dir Definition
10's deg

Wind Spd Definition
km/h
Visibility Definition
km
Stn Press Definition
kPa
Hmdx Definition


Wind Chill Definition


Weather Definition


00:00 3.1 2.8 98 LegendMM 32 2   101.21     LegendNANA
01:00 1.4 1.1 98 LegendMM 21 3   101.21     LegendNANA
02:00 1.0 0.7 98 LegendMM 28 5   101.21     LegendNANA
03:00 2.1 1.7 97 LegendMM 24 6   101.22     LegendNANA
04:00 1.6 0.9 95 LegendMM 26 8   101.23     LegendNANA
05:00 1.4 0.7 95 LegendMM 28 5   101.23     LegendNANA
06:00 3.3 1.9 91 LegendMM 28 8   101.23     LegendNANA
07:00 6.1 3.0 81 LegendMM 27 7   101.24     LegendNANA
08:00 8.3 4.1 75 LegendMM 25 6   101.22     LegendNANA
09:00 11.1 3.8 61 LegendMM 24 6   101.16     LegendNANA
10:00 12.6 2.9 52 LegendMM 25 5   101.12     LegendNANA
11:00 14.1 2.8 47 LegendMM 19 11   101.07     LegendNANA
12:00 14.8 1.9 42 LegendMM 20 9   101.00     LegendNANA
13:00 15.2 0.6 37 LegendMM 23 10   100.92     LegendNANA
14:00 15.5 -0.6 33 LegendMM 28 15   100.88     LegendNANA
15:00 16.6 -0.4 31 LegendMM 26 12   100.85     LegendNANA
16:00 16.8 0.1 32 LegendMM 27 16   100.77     LegendNANA
17:00 16.1 2.3 39 LegendMM 36 9   100.76     LegendNANA
18:00 14.4 3.8 49 LegendMM 28 17   100.83     LegendNANA
19:00 14.0 3.5 49 LegendMM 31 10   100.87     LegendNANA
20:00 12.7 2.4 49 LegendMM 28 3   100.87     LegendNANA
21:00 9.1 3.6 68 LegendMM 24 4   100.91     LegendNANA
22:00 8.1 2.9 70 LegendMM 35 6   100.97     LegendNANA
23:00 6.8 4.3 84 LegendMM 3 9   100.98     LegendNANA

Notes on Data Quality.

Legend

  • E = Estimated
  • M = Missing
  • NA = Not Available*
  • [empty] = Indicates an unobserved value
Date modified: